Temperature
21 21 20 20 19 19 21 22 23 23 22 22 22 22 21 20 20 20 20 20 20 20 20 19 19 19 19 19 19 19 19 19 19 19 19 19 19 19 19 19 19 19 19 19 19 18 18 18 18
21 21 20 20 20 20 21 22 23 23 23 22 22 22 21 20 20 20 20 20 20 20 20 19 19 19 19 19 19 19 19 19 19 19 19 19 19 19 19 19 19 19 19 19 18 18 18 18 18
21 21 21 19 20 20 22 23 22 23 23 23 22 21 21 20 20 20 20 20 20 20 20 19 19 19 19 19 19 19 19 19 19 19 19 19 19 19 19 19 19 19 19 18 18 18 18 18 18
21 21 21 20 21 22 22 23 23 23 23 23 22 21 20 20 20 20 20 20 20 20 20 19 19 19 19 19 19 19 19 19 19 19 19 19 19 19 19 19 19 19 18 18 18 18 18 18 18
22 21 20 20 22 23 23 24 23 23 23 22 21 20 20 20 20 20 20 20 20 20 19 19 19 19 19 19 19 19 19 19 19 19 19 19 19 19 19 19 19 19 19 18 18 18 18 18 18
22 21 20 21 22 23 24 24 23 22 22 22 21 20 20 20 20 20 20 20 20 20 19 19 19 19 19 19 19 19 19 19 19 19 19 19 19 19 19 19 19 19 18 18 18 18 18 18 18
22 20 21 21 22 23 24 24 23 22 22 22 21 20 20 20 20 20 20 20 20 20 19 19 19 19 19 19 19 19 19 19 19 19 19 19 19 19 19 19 19 19 18 18 18 18 18 18 18
23 20 22 21 22 23 24 24 23 23 22 22 22 20 20 20 20 20 20 20 19 19 19 19 19 19 19 19 19 19 19 19 19 19 19 19 19 19 19 19 18 18 18 18 18 18 18 18 18
23 20 21 22 23 23 24 24 24 23 22 22 22 21 21 20 20 20 20 20 19 19 19 19 19 19 19 19 19 19 19 19 19 19 19 19 19 19 19 18 18 18 18 18 18 18 18 18 18
23 21 22 23 24 24 24 24 24 23 22 21 21 21 21 20 20 20 20 20 20 19 19 19 19 19 19 19 19 19 19 19 19 19 19 19 19 19 19 18 18 18 18 18 18 18 18 18 18
22 22 23 24 25 25 24 24 24 23 21 22 21 21 21 20 20 20 20 20 20 20 19 19 19 19 19 19 19 19 19 19 19 19 19 19 19 19 18 18 18 18 18 18 18 18 18 18 18
23 23 24 25 26 25 24 24 24 23 23 23 23 22 21 21 20 21 20 20 20 20 20 20 19 19 19 19 19 19 19 19 19 19 19 19 19 19 19 19 18 18 18 18 18 18 18 18 17
24 24 25 26 25 25 24 24 24 23 24 23 22 22 21 21 21 21 21 20 20 20 20 20 20 19 19 19 19 19 19 19 19 19 19 19 19 19 19 19 19 18 18 18 18 18 18 18 17
24 25 25 25 25 25 24 24 23 23 23 23 22 22 22 22 21 21 21 21 20 20 20 20 20 20 19 19 19 19 19 19 19 19 19 19 19 19 19 19 19 18 18 18 18 18 18 18 18
25 24 24 25 25 25 24 23 23 23 23 22 22 22 21 22 22 21 21 21 21 21 20 20 20 20 20 19 19 19 19 19 19 19 19 19 19 19 19 19 19 18 18 18 18 18 18 18 18
24 24 24 25 25 25 24 23 23 23 23 22 22 21 21 22 22 22 21 21 21 21 20 20 20 20 20 20 19 19 19 19 19 19 19 19 19 19 19 19 18 18 18 18 18 18 18 18 18
23 23 24 25 25 25 24 23 23 23 22 22 22 22 22 22 22 22 22 21 21 21 21 20 20 20 20 20 19 19 19 19 19 19 19 19 19 19 19 19 18 18 18 18 18 18 18 18 18
24 24 24 24 24 24 23 23 22 23 22 22 22 22 22 22 22 22 22 21 21 21 21 20 20 20 20 20 20 19 19 19 19 19 19 19 19 19 19 18 18 18 18 18 18 18 18 18 18
24 24 24 24 25 24 23 23 22 22 22 22 22 22 22 22 22 22 22 21 21 21 21 21 20 20 20 20 20 20 19 19 19 19 19 19 19 19 19 18 18 18 18 18 18 18 18 18 17
24 24 24 24 24 24 23 23 22 22 22 22 22 22 22 22 22 22 22 21 21 21 21 21 20 20 20 20 20 19 19 19 19 19 19 19 19 18 18 18 18 18 18 18 18 18 18 18 17
24 24 24 24 24 23 23 22 22 22 22 22 22 22 22 22 22 22 22 22 21 21 21 21 20 20 20 20 20 19 19 19 19 19 19 19 19 18 18 18 18 18 18 18 18 18 18 17 17
24 24 24 24 22 21 23 21 22 21 21 21 22 22 22 22 22 22 22 22 22 22 21 21 20 20 20 20 20 19 19 19 19 19 19 19 18 18 18 18 18 18 18 18 18 18 17 17 17
24 24 24 23 22 21 21 21 21 21 21 21 21 22 22 22 22 23 22 22 22 22 21 21 20 20 20 20 19 19 19 19 19 19 19 19 18 18 18 18 18 18 18 18 17 17 17 17 17
24 23 22 20 20 21 21 21 21 20 21 21 22 22 22 22 23 23 23 22 22 21 21 21 21 20 20 20 19 19 19 19 19 19 19 19 18 18 18 18 18 18 18 18 17 17 17 17 17
24 22 21 22 20 21 21 21 20 21 21 22 22 22 22 22 23 23 22 22 22 22 21 21 21 21 20 20 20 19 19 19 19 18 18 18 18 18 18 18 18 18 18 17 17 17 17 17 17
23 22 21 22 21 21 21 20 21 22 22 22 22 22 22 22 22 22 22 22 22 22 21 21 21 21 20 20 20 19 19 19 19 18 18 18 18 18 18 18 18 18 17 17 17 17 17 17 17
23 21 21 20 20 20 20 20 21 22 21 21 21 22 22 22 22 22 22 22 22 22 22 21 21 21 20 20 20 19 19 19 18 18 18 18 18 18 18 18 17 17 17 17 17 17 17 17 17
23 20 19 19 20 21 21 21 21 22 21 21 20 21 21 22 22 22 22 22 22 22 22 21 21 21 20 20 19 19 19 19 18 18 18 18 18 18 18 18 17 17 17 17 17 17 17 17 17
23 21 18 17 19 20 21 21 22 21 20 20 20 21 21 22 22 22 22 22 22 22 22 21 21 20 20 20 19 19 19 19 18 18 18 18 18 18 18 17 17 17 17 17 17 17 17 17 17
23 21 19 21 20 18 19 20 22 20 20 20 20 21 22 22 22 22 22 22 22 21 21 21 21 21 20 20 19 19 19 19 18 18 18 18 18 17 17 17 17 17 17 17 17 17 17 16 16
Wind_Speed
7 6 3 1 2 4 3 3 1 2 3 3 4 5 5 4 2 2 1 3 4 4 4 6 7 8 9 9 10 11 13 13 14 13 12 12 12 12 12 12 12 13 13 13 12 12 12 12 12
6 5 2 1 4 3 3 2 2 2 3 4 5 5 5 4 3 3 1 2 4 4 4 5 8 8 9 9 10 11 12 12 12 12 11 11 11 10 11 11 12 12 12 12 12 12 12 12 12
5 3 1 3 2 2 1 1 3 4 3 2 3 4 3 2 2 2 1 4 5 4 3 5 8 8 9 9 10 10 11 11 11 10 10 10 9 9 10 10 11 11 11 11 12 12 12 12 11
3 1 2 4 2 1 2 2 3 4 3 5 4 4 3 3 2 2 4 6 6 3 3 5 8 8 8 9 9 10 10 10 9 9 8 8 9 9 9 9 10 10 10 10 10 11 11 11 11
1 2 4 3 3 2 0 2 3 3 2 4 5 4 3 3 5 6 5 5 5 3 3 4 8 8 8 8 8 9 9 9 9 8 8 8 8 8 8 8 9 9 9 9 9 9 10 10 10
2 3 4 2 3 3 1 2 4 4 4 4 4 3 2 2 4 5 5 4 4 4 3 4 6 8 8 7 8 8 8 8 7 7 7 8 8 8 7 8 9 9 9 9 9 9 9 9 9
2 3 1 0 1 2 0 2 3 4 3 2 4 4 1 1 2 5 5 5 4 4 3 2 3 5 6 7 7 7 7 7 7 7 7 8 8 7 7 7 8 8 8 8 8 8 9 9 8
3 3 1 0 1 1 1 2 2 4 3 4 4 5 3 2 4 5 6 5 4 3 3 2 2 3 3 4 5 5 6 6 6 6 7 7 7 6 6 7 7 7 7 7 7 7 8 7 7
3 3 0 2 3 1 1 2 1 3 5 3 3 3 4 7 7 7 5 4 3 3 2 2 2 2 2 2 3 3 4 5 5 5 5 5 4 4 4 6 7 7 7 7 7 7 7 6 5
3 2 3 4 4 3 2 2 2 3 4 3 5 6 8 8 7 6 5 4 3 3 2 2 2 2 2 2 2 2 2 3 4 3 3 4 4 4 4 5 6 6 6 6 6 6 5 4 3
4 4 3 2 4 4 3 2 2 5 2 4 6 8 8 7 6 5 4 4 4 3 3 3 2 2 2 1 1 2 2 3 3 3 3 4 4 3 3 3 3 4 4 4 4 4 3 3 2
2 3 4 2 2 3 4 3 3 4 4 5 9 11 9 8 6 6 5 4 4 3 3 3 2 2 2 2 1 1 1 1 2 2 3 3 2 2 2 1 2 2 2 2 2 2 2 2 2
2 2 1 2 2 3 4 3 3 2 4 8 10 9 8 7 6 4 4 4 4 4 3 3 3 3 3 2 2 2 2 1 2 2 3 3 2 2 1 1 1 2 2 2 1 2 2 2 1
1 0 1 1 2 2 4 1 3 2 7 9 9 8 7 7 6 5 4 4 4 4 4 3 3 3 3 3 3 2 2 2 2 2 2 3 3 2 2 1 1 1 1 2 2 1 1 1 0
2 3 4 2 2 2 5 2 2 4 8 8 8 7 6 6 6 6 6 5 5 4 4 4 4 3 4 4 4 3 2 3 2 2 3 3 3 3 2 1 1 1 2 2 2 1 1 1 0
3 4 2 2 1 2 5 3 3 6 9 8 7 7 6 5 6 6 5 5 4 4 4 4 4 4 4 4 3 2 2 3 2 2 3 3 3 4 3 2 1 1 2 2 1 1 1 0 0
4 1 1 2 0 2 3 4 2 6 9 8 7 7 6 5 5 5 5 6 5 5 5 4 4 5 5 4 3 3 2 2 2 2 2 3 3 3 3 2 1 2 2 1 1 1 0 0 0
3 2 2 3 2 2 2 3 2 6 8 8 7 7 6 7 7 5 5 5 5 5 4 4 4 4 5 4 3 3 3 2 2 2 2 2 2 3 3 2 1 2 1 1 1 1 1 0 1
5 3 3 4 2 3 3 3 3 5 6 7 7 7 7 7 4 4 4 4 5 4 4 4 4 4 4 3 3 2 1 1 1 1 1 2 2 3 3 2 1 1 1 1 1 1 1 0 0
3 2 2 3 1 2 1 3 3 5 7 7 8 9 8 6 5 5 4 5 5 5 5 4 4 4 4 3 3 2 2 1 1 0 1 1 2 3 3 2 2 1 1 1 1 1 1 0 1
3 5 5 3 2 3 2 4 3 2 2 3 5 6 7 9 8 7 6 6 5 5 6 5 4 4 3 4 3 3 3 2 1 1 0 0 1 2 2 3 2 2 2 2 2 2 2 1 0
4 5 5 3 3 1 2 2 6 3 3 4 6 7 8 8 8 8 8 7 8 7 5 5 4 4 3 4 4 4 3 2 2 1 1 0 0 1 2 2 2 2 2 2 2 2 2 2 1
4 2 3 2 3 2 2 2 6 1 3 7 7 8 8 8 9 9 9 9 7 6 6 5 5 4 3 3 4 4 3 2 1 1 1 0 0 1 1 2 2 2 2 2 2 2 2 2 2
5 6 6 6 5 1 2 3 6 4 6 6 6 6 7 7 8 8 6 5 5 5 5 6 6 4 3 4 3 4 4 3 2 2 1 1 1 1 1 1 2 2 2 2 2 2 2 2 2
5 6 4 4 3 4 2 3 7 7 6 6 6 6 5 6 6 6 6 6 6 6 6 6 6 5 4 4 4 4 4 4 4 3 3 2 1 1 2 1 1 2 2 2 2 2 2 3 3
5 8 7 5 5 4 2 4 7 5 4 3 4 4 4 5 6 7 7 7 7 7 6 6 7 5 5 5 4 3 3 3 3 3 3 2 2 2 2 1 2 2 2 2 2 2 2 2 2
6 4 6 6 3 0 4 5 7 2 2 1 2 3 4 5 6 6 6 6 6 6 6 6 6 5 5 5 4 3 3 3 3 2 2 1 1 2 1 1 2 2 1 1 1 1 2 2 2
5 8 6 6 5 2 5 4 4 5 4 3 3 4 4 4 5 5 5 6 6 6 5 5 5 5 4 4 4 3 3 3 3 2 2 2 1 1 1 1 1 1 1 1 1 2 2 1 2
3 4 6 5 5 6 3 6 5 7 6 5 5 4 5 5 6 6 5 5 5 4 5 5 5 4 3 4 4 3 3 2 2 2 2 2 2 1 1 1 1 1 1 1 1 2 2 2 2
3 5 7 5 4 4 4 7 5 4 4 4 4 3 3 3 4 5 4 4 4 4 4 5 5 5 4 4 3 3 3 2 2 2 2 2 1 1 1 1 1 1 1 1 2 2 2 2 3
Wind_Direction
171 157 155 163 53 45 359 325 32 37 46 42 62 75 87 77 88 128 309 95 96 111 120 126 116 113 114 114 111 112 115 118 123 127 133 136 139 141 143 146 147 150 151 153 154 153 150 146 144
156 164 175 54 67 44 337 334 57 62 124 122 73 65 66 58 58 99 93 105 101 114 119 128 123 120 116 114 112 112 114 117 120 125 128 134 139 144 146 149 152 152 155 158 158 157 155 150 148
171 194 78 53 73 155 227 278 114 97 100 82 66 53 65 78 82 124 163 125 101 97 109 136 130 126 120 117 116 116 116 116 119 123 126 132 134 139 145 150 150 152 156 159 159 157 155 150 146
167 74 51 53 18 259 189 182 134 112 63 54 79 62 48 48 120 126 118 121 112 106 120 143 135 129 123 121 119 118 117 117 119 121 123 127 131 136 139 146 150 153 155 156 157 155 152 146 143
90 69 45 20 336 331 42 130 113 94 78 71 80 83 39 27 87 104 113 118 121 115 120 140 136 131 127 125 123 123 121 120 119 118 118 122 128 135 138 145 148 152 153 153 150 145 145 144 140
59 66 58 10 340 344 24 81 96 87 91 88 85 88 40 53 99 120 120 112 115 125 121 131 142 134 131 130 127 124 122 122 122 119 116 117 119 127 135 144 151 154 156 156 153 149 149 146 144
97 83 83 194 316 333 92 78 96 115 105 106 110 97 52 71 118 117 109 102 95 100 102 98 129 136 135 129 123 122 120 118 117 114 111 111 113 118 125 134 140 143 151 155 157 153 154 152 155
132 94 38 272 182 298 118 80 96 116 114 118 110 130 178 193 118 101 95 91 91 91 88 88 92 108 119 125 132 129 121 116 114 112 107 106 107 110 111 116 128 135 137 142 145 145 149 151 158
114 77 245 217 182 216 122 87 70 78 98 90 92 135 141 124 112 100 91 84 102 117 101 101 107 110 118 133 139 124 113 109 107 106 104 97 89 94 100 108 115 119 123 130 135 138 138 134 140
104 128 230 212 182 167 137 114 124 91 88 84 77 81 104 117 122 124 129 142 157 169 167 149 148 139 126 146 126 103 100 90 91 94 98 94 88 88 96 104 105 103 104 103 112 123 115 112 110
149 186 232 242 177 156 137 115 118 130 162 185 156 139 130 128 134 145 156 167 180 180 177 167 169 157 144 149 129 110 108 102 100 103 103 102 96 88 81 88 94 88 86 82 84 86 95 101 106
167 240 218 227 161 139 145 134 130 168 203 162 148 143 141 146 158 168 168 174 165 158 181 173 170 166 177 169 145 123 122 121 120 118 117 118 107 89 83 88 94 92 92 89 90 98 100 108 121
187 268 251 191 137 133 116 127 140 162 127 121 130 138 151 159 170 172 162 158 154 163 179 175 169 179 185 170 172 143 142 141 133 121 126 134 127 112 112 114 109 108 111 107 96 97 110 126 143
202 34 351 44 104 132 124 116 121 176 130 130 141 155 169 172 172 159 159 163 168 173 176 168 165 171 169 163 156 153 151 146 128 134 141 136 141 145 133 117 101 103 112 111 110 114 124 142 150
70 50 18 23 75 122 109 42 213 165 137 145 160 170 179 184 176 178 179 176 173 169 164 159 156 151 156 156 154 155 151 142 145 156 150 144 152 149 142 127 101 95 107 101 83 75 87 99 118
37 55 23 303 85 135 124 243 244 148 149 160 170 178 183 190 189 188 176 172 165 156 154 160 152 143 148 144 141 146 147 142 152 147 140 146 158 150 140 132 122 98 99 96 79 45 46 67 67
33 50 255 300 312 120 143 234 223 157 161 172 179 182 184 189 197 195 183 176 167 161 155 148 138 136 140 134 126 123 121 126 130 128 134 142 153 150 141 135 118 103 97 90 86 68 54 136 287
228 235 246 238 248 127 191 243 218 176 177 185 186 185 187 196 207 196 185 172 162 158 153 148 140 134 131 124 110 98 93 94 100 104 114 125 133 137 136 130 115 106 103 81 71 77 63 259 260
176 190 249 253 199 154 215 242 228 186 185 194 195 193 200 208 200 174 171 163 154 154 155 159 150 143 131 120 121 121 119 105 98 126 124 147 147 142 140 143 126 127 160 192 165 131 97 353 136
171 200 256 297 97 148 217 287 254 198 201 199 199 200 201 196 177 173 174 173 174 174 176 173 164 155 152 149 142 138 133 136 144 113 77 143 162 164 166 162 166 168 185 218 200 147 148 255 106
218 200 214 212 30 49 75 333 302 268 214 204 202 199 195 195 193 185 182 189 189 191 187 182 172 163 161 150 124 103 84 66 65 45 346 327 155 167 172 167 172 183 187 214 223 198 182 213 252
247 227 192 164 106 314 101 275 293 272 259 234 223 203 199 199 193 187 186 189 197 196 179 164 158 154 155 151 150 155 163 180 201 193 206 268 136 171 176 166 173 188 189 208 225 201 193 183 226
209 120 122 121 125 58 21 148 287 317 257 251 236 217 206 197 193 192 193 195 190 179 166 161 152 150 143 145 156 161 175 182 163 143 149 217 292 227 197 185 180 193 205 213 213 187 188 191 199
136 72 57 52 73 18 257 170 274 248 235 246 232 217 203 193 187 186 183 170 166 157 157 156 155 163 158 158 164 170 179 173 166 181 191 240 281 296 265 203 193 204 210 216 217 207 202 210 206
103 95 41 4 9 255 255 187 250 251 243 228 225 217 195 183 177 172 169 169 170 166 168 164 166 176 174 171 180 183 185 185 194 203 205 220 251 281 272 251 221 222 222 215 203 205 219 219 215
166 145 158 194 217 270 323 235 258 269 267 237 211 199 180 175 175 180 179 177 178 180 178 170 173 182 180 177 185 188 185 193 205 206 203 212 228 252 260 239 237 243 230 219 196 216 234 229 232
140 158 160 135 142 302 287 288 304 298 320 228 183 173 183 187 184 185 178 175 177 181 183 179 180 181 183 178 173 183 188 191 200 199 193 209 231 245 249 242 251 257 238 219 199 230 246 243 246
133 141 106 122 148 238 291 279 252 266 267 257 206 197 199 192 184 180 175 180 184 184 181 166 170 179 182 175 180 188 186 188 185 170 181 198 224 241 244 256 260 271 262 222 212 239 251 246 267
108 96 106 112 144 158 233 267 232 225 228 223 227 215 200 195 186 181 180 182 177 168 170 171 172 168 175 182 182 177 181 181 174 185 202 203 219 233 249 257 268 277 275 243 217 238 240 243 271
147 157 151 151 199 170 180 259 282 219 225 214 223 225 208 196 182 173 167 161 165 173 176 179 180 184 190 182 176 178 175 173 184 203 213 201 212 243 241 249 279 285 282 257 230 248 251 244 256
Height
1494 1494 1494 1496 1498 1505 1508 1500 1494 1493 1493 1494 1493 1493 1495 1497 1500 1506 1501 1498 1498 1498 1497 1498 1498 1497 1498 1498 1497 1495 1495 1496 1500 1504 1507 1509 1511 1513 1515 1516 1518 1520 1521 1523 1525 1526 1528 1529 1531
1494 1495 1497 1497 1504 1516 1510 1498 1496 1494 1494 1494 1494 1495 1496 1498 1499 1500 1499 1500 1500 1500 1500 1500 1500 1500 1501 1501 1500 1500 1501 1502 1504 1507 1509 1511 1512 1514 1515 1517 1519 1520 1522 1524 1525 1527 1528 1530 1532
1495 1496 1498 1500 1507 1514 1508 1497 1495 1494 1495 1495 1496 1497 1498 1500 1500 1501 1501 1501 1501 1501 1502 1502 1503 1503 1503 1504 1504 1505 1505 1506 1508 1509 1511 1512 1513 1514 1516 1517 1519 1521 1522 1524 1525 1527 1529 1531 1532
1496 1498 1499 1504 1508 1503 1499 1496 1494 1495 1495 1496 1497 1499 1501 1502 1502 1503 1502 1503 1503 1503 1504 1505 1505 1506 1506 1507 1507 1508 1509 1510 1511 1512 1513 1513 1514 1515 1516 1517 1519 1521 1523 1524 1526 1527 1529 1531 1532
1498 1499 1504 1510 1507 1499 1496 1495 1495 1496 1496 1498 1499 1501 1503 1504 1503 1504 1504 1505 1505 1506 1506 1507 1508 1509 1509 1510 1510 1511 1512 1512 1513 1514 1514 1515 1515 1516 1517 1518 1519 1521 1523 1525 1527 1528 1530 1531 1533
1499 1500 1512 1516 1508 1500 1496 1496 1497 1497 1499 1500 1500 1502 1504 1505 1505 1505 1506 1506 1507 1508 1508 1509 1510 1511 1512 1512 1513 1514 1514 1515 1516 1516 1516 1517 1517 1517 1518 1519 1520 1522 1524 1526 1527 1529 1530 1531 1533
1500 1504 1511 1512 1509 1503 1498 1497 1498 1499 1500 1501 1502 1504 1505 1505 1506 1506 1507 1508 1509 1510 1510 1511 1512 1513 1514 1515 1515 1516 1517 1517 1518 1518 1518 1519 1519 1519 1519 1520 1521 1523 1525 1526 1528 1529 1531 1532 1534
1500 1504 1510 1511 1509 1504 1499 1498 1499 1500 1501 1502 1503 1504 1505 1506 1507 1507 1508 1509 1510 1511 1512 1513 1514 1515 1516 1517 1518 1518 1519 1519 1520 1520 1520 1521 1521 1522 1522 1522 1523 1525 1526 1527 1529 1530 1532 1533 1534
1500 1508 1514 1508 1506 1502 1498 1499 1501 1501 1501 1503 1503 1504 1505 1506 1507 1508 1509 1510 1511 1512 1513 1514 1515 1517 1518 1518 1519 1520 1521 1521 1522 1522 1523 1523 1524 1524 1524 1525 1526 1526 1527 1529 1530 1531 1533 1534 1535
1501 1511 1506 1499 1498 1498 1499 1500 1501 1502 1503 1504 1505 1505 1506 1507 1508 1509 1509 1510 1511 1513 1514 1515 1517 1518 1519 1520 1521 1522 1522 1523 1524 1524 1525 1525 1526 1526 1527 1527 1528 1529 1529 1530 1531 1533 1534 1535 1536
1500 1504 1499 1496 1496 1497 1499 1500 1501 1503 1504 1504 1504 1505 1507 1508 1509 1509 1510 1511 1512 1514 1515 1516 1518 1519 1520 1521 1522 1523 1524 1525 1525 1526 1526 1527 1527 1528 1528 1529 1529 1530 1531 1531 1532 1533 1534 1535 1536
1499 1498 1497 1496 1495 1497 1498 1500 1501 1502 1503 1503 1504 1505 1507 1508 1509 1510 1511 1512 1513 1515 1516 1517 1519 1520 1521 1522 1523 1524 1525 1526 1527 1527 1528 1528 1529 1529 1530 1530 1531 1531 1532 1532 1533 1534 1535 1536 1536
1498 1497 1496 1495 1495 1497 1498 1500 1501 1502 1503 1504 1505 1507 1508 1509 1510 1511 1512 1513 1514 1515 1517 1518 1519 1520 1522 1523 1524 1525 1526 1527 1528 1529 1529 1530 1530 1531 1531 1532 1532 1533 1533 1533 1534 1535 1536 1536 1537
1496 1496 1496 1496 1496 1497 1499 1501 1502 1503 1504 1505 1506 1507 1509 1510 1511 1512 1513 1514 1515 1516 1518 1519 1520 1521 1522 1523 1525 1526 1527 1528 1529 1530 1530 1531 1531 1532 1532 1532 1533 1533 1534 1534 1535 1535 1536 1536 1536
1497 1498 1498 1497 1497 1498 1500 1504 1502 1502 1504 1506 1507 1508 1509 1510 1512 1513 1514 1515 1516 1517 1518 1520 1520 1521 1522 1524 1525 1527 1528 1529 1530 1531 1531 1532 1532 1533 1533 1533 1534 1534 1535 1535 1535 1535 1535 1536 1536
1499 1504 1509 1500 1498 1499 1504 1511 1502 1503 1504 1506 1507 1509 1510 1511 1512 1513 1515 1516 1517 1518 1519 1520 1521 1522 1523 1524 1526 1528 1529 1530 1531 1531 1532 1533 1533 1534 1534 1534 1534 1535 1535 1535 1535 1535 1535 1535 1536
1508 1515 1512 1505 1499 1499 1503 1508 1502 1502 1504 1505 1507 1509 1510 1511 1512 1513 1515 1516 1518 1519 1520 1521 1522 1523 1524 1526 1527 1528 1529 1530 1531 1532 1532 1533 1534 1534 1534 1534 1535 1535 1535 1535 1535 1536 1536 1535 1536
1515 1514 1511 1509 1501 1501 1505 1505 1502 1502 1503 1505 1506 1508 1509 1510 1511 1513 1515 1517 1519 1520 1521 1522 1523 1524 1525 1527 1528 1529 1530 1530 1531 1532 1532 1533 1534 1534 1534 1535 1535 1535 1535 1535 1535 1536 1536 1535 1535
1503 1508 1511 1505 1499 1503 1505 1505 1502 1502 1503 1504 1506 1507 1508 1509 1512 1514 1515 1517 1519 1520 1521 1522 1523 1524 1526 1527 1528 1529 1529 1530 1531 1532 1532 1533 1533 1534 1534 1534 1534 1535 1535 1535 1535 1535 1535 1535 1534
1502 1509 1509 1504 1499 1503 1507 1506 1501 1501 1501 1502 1504 1505 1507 1509 1511 1513 1515 1516 1518 1519 1521 1522 1524 1525 1526 1527 1528 1529 1530 1530 1531 1531 1532 1532 1533 1533 1533 1534 1534 1534 1534 1534 1534 1534 1534 1534 1534
1503 1507 1506 1507 1504 1504 1508 1511 1505 1501 1501 1502 1503 1504 1505 1507 1508 1511 1513 1515 1517 1518 1520 1522 1523 1525 1526 1527 1528 1529 1529 1529 1530 1530 1531 1532 1532 1532 1533 1533 1533 1533 1533 1533 1533 1533 1533 1533 1533
1506 1496 1498 1503 1512 1520 1514 1529 1511 1505 1503 1501 1500 1501 1502 1504 1506 1508 1510 1512 1514 1516 1519 1520 1522 1524 1525 1526 1527 1528 1528 1528 1529 1530 1530 1531 1531 1532 1532 1532 1532 1532 1532 1532 1532 1532 1532 1532 1532
1496 1493 1498 1504 1513 1521 1519 1527 1519 1507 1506 1500 1498 1498 1499 1501 1503 1506 1508 1510 1513 1515 1517 1519 1521 1523 1524 1525 1525 1526 1527 1528 1528 1529 1529 1530 1530 1530 1530 1531 1531 1531 1531 1531 1531 1531 1530 1530 1530
1490 1498 1504 1512 1520 1532 1524 1528 1524 1511 1503 1497 1495 1495 1496 1498 1501 1504 1506 1509 1511 1514 1516 1518 1520 1521 1523 1524 1525 1525 1526 1527 1527 1528 1528 1528 1529 1529 1529 1529 1529 1529 1530 1530 1529 1529 1529 1529 1529
1493 1511 1530 1533 1540 1536 1521 1524 1520 1499 1495 1493 1492 1492 1494 1496 1499 1502 1504 1507 1509 1512 1514 1516 1518 1520 1521 1522 1523 1524 1525 1526 1526 1527 1527 1527 1527 1527 1528 1528 1528 1528 1528 1528 1528 1527 1527 1527 1527
1496 1505 1529 1539 1541 1534 1523 1524 1509 1493 1491 1490 1490 1491 1493 1495 1497 1500 1502 1505 1507 1510 1512 1514 1516 1518 1519 1520 1521 1522 1523 1524 1525 1526 1526 1526 1526 1526 1526 1526 1526 1526 1526 1526 1526 1526 1525 1525 1525
1496 1504 1505 1524 1530 1535 1528 1517 1502 1491 1490 1489 1489 1490 1492 1494 1496 1498 1501 1503 1506 1508 1510 1512 1514 1516 1517 1518 1519 1520 1522 1523 1523 1524 1525 1525 1525 1525 1525 1525 1524 1524 1524 1524 1524 1523 1523 1523 1522
1487 1497 1512 1524 1537 1540 1528 1521 1514 1497 1493 1490 1490 1490 1491 1493 1495 1497 1500 1502 1505 1507 1509 1511 1512 1514 1515 1516 1517 1519 1520 1521 1522 1522 1523 1523 1523 1523 1523 1523 1523 1523 1522 1522 1522 1521 1521 1520 1520
1493 1500 1510 1521 1524 1536 1538 1524 1494 1492 1490 1489 1489 1489 1490 1491 1493 1496 1499 1501 1503 1505 1507 1509 1511 1513 1514 1515 1516 1517 1519 1520 1520 1521 1521 1522 1522 1522 1522 1522 1521 1521 1520 1520 1519 1519 1518 1518 1517
1486 1493 1504 1515 1522 1527 1530 1519 1487 1487 1487 1487 1488 1488 1489 1491 1493 1495 1498 1500 1502 1504 1506 1508 1510 1512 1513 1514 1515 1516 1517 1518 1518 1519 1520 1520 1520 1520 1520 1519 1519 1519 1518 1517 1517 1516 1516 1515 1514